FENGYUN 1C DEB, 30514

Orbit data source: Space-Track

FENGYUN 1C DEB, 30514 is space debris in SSO originally from a launch on Mon, 10 May 1999 UTC launched from the Taiyaun Space Center, China (TSC). Fengyun 1C debris stems from the Chinese weather satellite Fengyun-1C, which was intentionally destroyed by a Chinese anti-satellite missile in 2007. This event dramatically increased the amount of space debris, with thousands of trackable fragments posing hazards to satellites and human spaceflight. The Fengyun 1C debris cloud has become a focal point in discussions about space sustainability and the need for international regulations to prevent the creation of new debris.

Loading next visibility...
Identifier
30514, 1999-025AJC
Orbit
SSO
Country
Flag of CNCN / PRC
Related business
Manufacturer
Unknown
Mission
Spacecraft
Bus & Motor
Unknown
Mass
Unknown
Launch date (UTC)
1999-05-10 (27 years ago)
Launch vehicle
Unknown
Launch site
Taiyaun Space Center, China (TSC)
Object type
Payload
Rocket body
Debris
Shape & HBR
Unknown shape, 0.1 m
Radar Cross Section
Small (<0.1 m²)

Expand to show TLE details & history
Last TLE update: 10 hours ago

TLE from 10 hours ago
0 FENGYUN 1C DEB
1 30514U 99025AJC 26063.28114682  .00001882  00000-0  57643-3 0  9994
2 30514  98.4064  89.6882 0172248 210.8851 148.2115 14.34713738993943
Epoch: 2026-03-04T06:44Z
TLE epoch observation values (Epoch: 2026-03-04T06:44:51.085Z)
Latitude
0.00004°
Longitude
-173.57277°
Altitude
884.304 km
Speed
7.355 km/s
True Right ascension
05h 58m 45s
True Declination
0° 00' 00"
Sunlit
Object was in daylight at epoch
Visualization orbit readout
Latitude
Unknown
Longitude
Unknown
Altitude
Unknown
Speed
Unknown
Apparent Right ascension
Unknown
Apparent Declination
Unknown
Sunlit
N/A
Visualization observer readout
Local Sidereal Time
20:23:59
Azimuth
Unknown
Elevation
Unknown
Doppler factor
Unknown
Orbital elements
Apogee altitude
896.32 km
Perigee altitude
649.962 km
Semi-major axis
7,151.278 km
Eccentricity
0.01722
Inclination
98.4064°
RAAN
89.6882°
Arg. of periapsis
210.8851°
True anomaly
149.23252°
Mean anomaly
148.2115°
Eccentric anomaly
148.72387°
Mean motion
3.58895 °/min
Orbital period
100.31 mins
BSTAR
0.00057643
Loading maneuver chart data...
Computing Atmospheric mass density...

Documentation

Showing up to 5 results
|